Flag for U.S.A. Weather past 2 weeks in Raleigh, North Carolina, U.S.A.

Now
64 °F

Broken clouds.


Feels Like: 64 °F
Forecast: 47 / 64 °F
Wind: No wind

Location: Raleigh-Durham International Airport

Current Time: Oct 21, 2014 at 8:02:56 PM

Latest Report: Oct 21, 2014 at 6:51 PM


Visibility: 10 mi

Pressure: 29.85 "Hg

Humidity: 63%

Dew point: 51 °F

Location of RaleighLocation

Historic Weather in Raleigh — Graph

°F

Raleigh temperature yesterday

Maximum temperature yesterday: 70 °F (at 3:51 PM)
Minimum temperature yesterday: 42 °F (at 3:51 AM)
Average temperature yesterday: 55 °F

Past Weeks' High & Low Weather Summary

 TemperatureHumidityPressure
High86 °F (Oct 11, 3:51 PM)94% (Oct 15, 7:51 AM)30.25 "Hg (Oct 15, 7:51 AM)
Low42 °F (Oct 20, 3:51 AM)34% (Oct 9, 3:51 PM)29.75 "Hg (Oct 18, 3:51 AM)
Average65 °F72%30.00 "Hg
* Reported Oct 6 6:51 PM — Oct 21 6:51 PM, Raleigh, Weather by CustomWeather, © 2014

Note: Actual official high and low records may vary slightly from our data, if they occured in-between our weather recording intervals... More about our weather records

Advertising

Raleigh weather history for previous 24 hours

 ConditionsComfort  
Time TempWeatherWind HumidityBarometerVisibility
6:51 PM
Oct 21
64 °FBroken clouds.No wind63%29.85 "Hg10 mi
5:51 PM67 °FPartly sunny.No wind55%29.84 "Hg10 mi
4:51 PM69 °FBroken clouds.5 mph47%29.83 "Hg10 mi
3:51 PM71 °FPartly sunny.5 mph44%29.83 "Hg10 mi
2:51 PM72 °FScattered clouds.7 mph44%29.83 "Hg10 mi
1:51 PM73 °FScattered clouds.8 mph41%29.85 "Hg10 mi
12:51 PM71 °FScattered clouds.9 mph44%29.89 "Hg10 mi
11:51 AM69 °FPassing clouds.7 mph49%29.91 "Hg10 mi
10:51 AM66 °FPassing clouds.No wind59%29.92 "Hg10 mi
9:51 AM61 °FPassing clouds.3 mph72%29.94 "Hg10 mi
8:51 AM56 °FPassing clouds.5 mph81%29.93 "Hg10 mi
7:51 AM52 °FPassing clouds.3 mph86%29.93 "Hg10 mi
6:51 AM53 °FPassing clouds.No wind86%29.92 "Hg10 mi
5:51 AM53 °FPassing clouds.No wind86%29.91 "Hg10 mi
4:51 AM55 °FPassing clouds.No wind83%29.91 "Hg10 mi
3:51 AM57 °FPartly cloudy.No wind78%29.91 "Hg10 mi
2:51 AM57 °FPassing clouds.3 mph78%29.94 "Hg10 mi
1:51 AM57 °FPassing clouds.3 mph78%29.96 "Hg10 mi
12:51 AM56 °FPartly cloudy.3 mph81%29.97 "Hg10 mi
11:51 PM
Oct 20
55 °FLight rain. Passing clouds.No wind80%29.97 "Hg10 mi
10:51 PM52 °FPartly cloudy.No wind86%29.99 "Hg10 mi
9:51 PM56 °FPassing clouds.No wind75%29.99 "Hg10 mi
8:51 PM56 °FPassing clouds.No wind77%30.00 "Hg10 mi
Weather by CustomWeather, © 2014

See weather overviewHow to use our weather pages